Change the Weather History Date:

Tuesday, December 18, 2012

  Actual Average Record
Temperature  
Mean Temperature 46 °F -  
Max Temperature 52 °F 39 °F 64 °F (2006)
Min Temperature 37 °F 25 °F 2 °F (1919)
Degree Days  
Heating Degree Days 20    
Moisture  
Dew Point 40 °F    
Average Humidity 86    
Maximum Humidity 100    
Minimum Humidity 56    
Precipitation  
Precipitation 0.01 in - - ()
Sea Level Pressure  
Sea Level Pressure 29.59 in    
Wind  
Wind Speed 3 mph (WNW)    
Max Wind Speed 20 mph    
Max Gust Speed 28 mph    
Visibility 5 miles    
Events Fog , Rain    
Averages and records for this station are not official NWS values.
T = Trace of Precipitation, MM = Missing Value Source: NWS Daily Summary

Daily Weather History Graph

Daily Weather History Graph

Search for Another Location

Airport or City:

Trip Planner

Search our weather history database for the weather conditions in past years. The results will help you decide how hot, cold, wet, or windy it might be!

Date:

Astronomy

Dec. 18, 2012 Rise Set
Actual Time 7:25 AM EST 4:43 PM EST
Civil Twilight 6:54 AM EST 5:14 PM EST
Nautical Twilight 6:20 AM EST 5:48 PM EST
Astronomical Twilight 5:47 AM EST 6:21 PM EST
Moon 11:03 AM EST (12/18) 11:07 PM EST (12/18)
Length of Visible Light 10h 20m
Length of Day
9h 18m
Waxing Crescent, 34% of the Moon is Illuminated
Dec 18
Waxing Crescent
Dec 20
First Quarter
Dec 28
Full
Jan 4
Last Quarter
Jan 11
New

Hourly Weather History & Observations

Time (EST) Temp. Windchill Dew Point Humidity Pressure Visibility Wind Dir Wind Speed Gust Speed Precip Events Conditions
12:56 AM 44.1 °F 42.5 °F 43.0 °F 96% 29.55 in 5.0 mi East 3.5 mph - 0.01 in   Overcast
1:16 AM 44.6 °F 43.1 °F 42.8 °F 93% 29.53 in 4.0 mi NE 3.5 mph - 0.00 in Rain Light Rain
1:56 AM 44.1 °F - 43.0 °F 96% 29.54 in 3.0 mi Calm Calm - 0.00 in   Overcast
2:56 AM 43.0 °F - 43.0 °F 100% 29.54 in 4.0 mi Calm Calm - N/A   Overcast
3:56 AM 43.0 °F - 43.0 °F 100% 29.54 in 3.0 mi Calm Calm - N/A   Overcast
4:24 AM 42.8 °F - 42.8 °F 100% 29.52 in 1.8 mi Calm Calm - N/A   Overcast
4:35 AM 42.8 °F - 42.8 °F 100% 29.53 in 1.0 mi Calm Calm - N/A   Overcast
4:56 AM 43.0 °F - 42.1 °F 97% 29.55 in 1.0 mi Calm Calm - N/A   Overcast
5:07 AM 42.8 °F - 42.8 °F 100% 29.53 in 0.8 mi Calm Calm - N/A   Overcast
5:32 AM 42.8 °F - 42.8 °F 100% 29.53 in 0.8 mi Calm Calm - N/A   Overcast
5:52 AM 42.8 °F - 42.8 °F 100% 29.53 in 1.0 mi Calm Calm - N/A   Overcast
5:56 AM 43.0 °F - 43.0 °F 100% 29.55 in 1.2 mi Calm Calm - N/A   Overcast
6:04 AM 44.6 °F - 42.8 °F 93% 29.54 in 1.8 mi Calm Calm - N/A   Overcast
6:11 AM 42.8 °F - 42.8 °F 100% 29.54 in 2.0 mi Calm Calm - N/A   Overcast
6:28 AM 44.6 °F 43.1 °F 42.8 °F 93% 29.54 in 4.0 mi West 3.5 mph - N/A   Overcast
6:56 AM 44.1 °F 42.5 °F 44.1 °F 100% 29.56 in 5.0 mi West 3.5 mph - N/A   Overcast
7:10 AM 44.6 °F 43.1 °F 44.6 °F 100% 29.54 in 3.0 mi West 3.5 mph - N/A   Overcast
7:16 AM 44.6 °F - 44.6 °F 100% 29.54 in 0.8 mi Calm Calm - N/A   Overcast
7:56 AM 44.1 °F - 44.1 °F 100% 29.56 in 0.2 mi Calm Calm - N/A Fog Fog
8:37 AM 44.6 °F 43.1 °F 42.8 °F 93% 29.55 in 1.5 mi West 3.5 mph - N/A   Overcast
8:45 AM 44.6 °F 43.1 °F 42.8 °F 93% 29.55 in 2.5 mi West 3.5 mph - N/A   Overcast
8:56 AM 44.1 °F 41.5 °F 44.1 °F 100% 29.56 in 1.2 mi WSW 4.6 mph - N/A   Overcast
9:13 AM 44.6 °F 43.1 °F 44.6 °F 100% 29.55 in 0.8 mi West 3.5 mph - N/A   Overcast
9:19 AM 44.6 °F - 44.6 °F 100% 29.55 in 1.5 mi Calm Calm - N/A   Overcast
9:45 AM 46.4 °F - 44.6 °F 93% 29.55 in 2.0 mi Calm Calm - N/A   Overcast
9:56 AM 46.0 °F - 46.0 °F 100% 29.56 in 1.5 mi Calm Calm - N/A   Overcast
9:58 AM 46.4 °F 45.2 °F 46.4 °F 100% 29.55 in 3.0 mi West 3.5 mph - N/A   Overcast
10:05 AM 46.4 °F - 44.6 °F 93% 29.55 in 2.0 mi Calm Calm - N/A   Mostly Cloudy
10:19 AM 48.2 °F - 46.4 °F 93% 29.55 in 2.0 mi NW 4.6 mph - N/A   Scattered Clouds
10:56 AM 48.9 °F - 46.0 °F 90% 29.55 in 6.0 mi Calm Calm - N/A   Partly Cloudy
11:56 AM 51.1 °F - 43.0 °F 74% 29.55 in 10.0 mi West 13.8 mph 25.3 mph 0.00 in Rain Light Rain
12:56 PM 52.0 °F - 39.0 °F 61% 29.55 in 10.0 mi West 12.7 mph 27.6 mph 0.00 in Rain Light Rain
1:56 PM 50.0 °F - 35.1 °F 57% 29.58 in 10.0 mi WNW 19.6 mph 27.6 mph 0.00 in   Overcast
2:56 PM 48.9 °F - 34.0 °F 56% 29.61 in 10.0 mi WNW 15.0 mph 26.5 mph 0.00 in Rain Light Rain
3:56 PM 46.9 °F - 33.1 °F 59% 29.64 in 10.0 mi WNW 18.4 mph 24.2 mph 0.00 in   Overcast
4:56 PM 46.0 °F 40.6 °F 32.0 °F 58% 29.67 in 10.0 mi WNW 11.5 mph 20.7 mph 0.00 in   Mostly Cloudy
5:56 PM 45.0 °F 39.7 °F 30.9 °F 58% 29.68 in 10.0 mi West 10.4 mph 18.4 mph 0.00 in   Mostly Cloudy
6:56 PM 45.0 °F 38.9 °F 30.9 °F 58% 29.72 in 10.0 mi WNW 12.7 mph - N/A   Mostly Cloudy
7:56 PM 43.0 °F 37.2 °F 28.0 °F 56% 29.75 in 10.0 mi WNW 10.4 mph - 0.00 in   Mostly Cloudy
8:56 PM 43.0 °F 36.0 °F 28.9 °F 58% 29.76 in 10.0 mi WNW 13.8 mph 18.4 mph N/A   Overcast
9:56 PM 42.1 °F 36.1 °F 28.0 °F 58% 29.75 in 10.0 mi WNW 10.4 mph - N/A   Clear
10:56 PM 39.0 °F 34.0 °F 28.0 °F 65% 29.78 in 10.0 mi WSW 6.9 mph - N/A   Clear
11:56 PM 37.0 °F 33.3 °F 28.0 °F 70% 29.79 in 10.0 mi WSW 4.6 mph - N/A   Clear